Printer-friendly version

IAU Minor Planet Center

Minor Planet Center

MPEC 2004-B67 : 2000 BG19

The following Minor Planet Electronic Circular may be linked-to from your own Web pages, but must not otherwise be redistributed electronically.


Read MPEC 2004-B66 Read MPEC 2004-B68


M.P.E.C. 2004-B67                                Issued 2004 Jan. 30, 10:12 UT

     The Minor Planet Electronic Circulars contain information on unusual
         minor planets and routine data on comets.  They are published
   on behalf of Commission 20 of the International Astronomical Union by the
          Minor Planet Center, Smithsonian Astrophysical Observatory,
                          Cambridge, MA 02138, U.S.A.

         Supported in part by the Steven and Michele Kirsch Foundation
             Prepared using the Tamkin Foundation Computer Network

                              MPC@CFA.HARVARD.EDU
          URL http://cfa-www.harvard.edu/iau/mpc.html  ISSN 1523-6714

                                   2000 BG19

                           Revision to MPEC 2000-C12

Additional Observations:
     K00B19G HC2003 12 19.29980 07 03 17.74 +08 19 03.5          23   V EB067291
     K00B19G HC2003 12 19.30371 07 03 17.58 +08 19 03.4          22.5 V EB067291
     K00B19G HC2003 12 19.30742 07 03 17.25 +08 19 04.5          22.4 V EB067291
     K00B19G HC2004 01 28.20927 06 18 47.78 +10 42 27.6          22.7 V EB067291
     K00B19G HC2004 01 28.21309 06 18 47.60 +10 42 29.8          23   V EB067291
     K00B19G HC2004 01 28.21688 06 18 47.38 +10 42 30.6          23   V EB067291
     K00B19G HC2004 01 30.23388 06 16 52.69 +10 54 30.3          21.5 V EB067291
     K00B19G HC2004 01 30.23938 06 16 52.34 +10 54 34.3          21.1 V EB067291
     K00B19G HC2004 01 30.24434 06 16 52.04 +10 54 36.2          21.9 V EB067291
     K00B19G HC2004 01 30.25417 06 16 51.44 +10 54 39.2          23   V EB067291
     K00B19G HC2004 01 30.25947 06 16 51.28 +10 54 41.8          23   V EB067291
     K00B19G HC2004 01 30.26361 06 16 51.01 +10 54 42.4          23   V EB067291

Observer details:
291 LPL/Spacewatch II.  Observers A. S. Descour, J. A. Larsen, M. Block.
    1.8-m f/2.7 reflector + CCD.

First and last observations above in comparison with prediction:
Residuals in seconds of arc, reference and Delta-T
031219 291  3.6+  0.1-    040130 291  4.0+  0.2+    MPO  3925   -0.0045 day

Orbital elements:
2000 BG19
Epoch 2003 Dec. 27.0 TT = JDT 2453000.5                 MPC
M 297.73655              (2000.0)            P               Q
n   0.22624909     Peri.   79.17993     -0.66737540     +0.73572962
a   2.6673387      Node   147.98753     -0.73954853     -0.63650885
e   0.5560953      Incl.   12.57111     -0.08762446     -0.23142692
P   4.36           H   18.0           G   0.15           U   1
Residuals in seconds of arc
000128 691  0.1-  0.5-    000305 704  0.4+  0.2+    000421 118  1.1-  0.0
000128 691  0.4+  0.3-    000305 704  0.0   0.2+    000421 118  0.1-  0.4-
000128 691  0.3+  0.1-    000305 610  0.6+  0.4+    000422 118  0.6+  0.0
000129 691  0.2+  0.3-    000305 610  0.4+  0.2+    000422 118  0.4-  0.1-
000129 691  0.0   0.6-    000305 610  0.4+  0.0     000423 118  0.4+  0.0
000129 691  0.2-  0.2-    000305 610  0.0   0.4-    000423 118  1.1+  0.1-
000130 691  0.1+  0.4-    000305 610  0.1+  0.5-    000425 610  1.2+  0.4+
000130 691  0.0   0.4-    000306 360  0.3-  0.5-    000425 610  0.9+  0.2+
000130 691  0.3+  0.5-    000306 360  0.2-  0.1-    000425 610  0.7+  0.2-
000131 691  0.3+  0.6-    000306 360  0.1-  0.1-    000425 610  0.4+  0.4-
000131 691  0.1-  0.8-    000306 360  0.1-  0.4-    000430 704  0.2-  0.3+
000131 691  0.2-  0.2-    000306 610  0.2-  1.0-    000430 704  0.5+  0.3+
000202 118  0.0   0.7+    000306 610  0.6-  0.9-    000430 704  0.2-  0.0
000202 118  0.8+  1.0+    000306 610  1.1-  0.7-    000430 704  0.4+  0.1-
000202 118  0.4+  0.2+    000306 610  1.4-  0.5-    000430 704  0.6+  0.0
000202 422  0.1+  0.2+    000306 610  1.8-  0.2-    000505 071  0.6-  0.3+
000202 422  0.0   0.1+    000307 049  0.0   1.8-    000505 071  1.3+  0.3-
000202 422  0.8+  0.0     000307 049  0.1+  1.2-    000505 071  0.0   0.1-
000204 046  0.2-  0.3+    000307 049  0.2+  1.7-    000505 071  0.3+  0.4+
000204 046  0.4-  0.4-    000308 049  0.1-  1.5-    000506 118  0.6+  0.3+
000204 046  1.1+  0.1+    000308 049  0.2+  1.6-    000506 118  0.5+  0.1+
000204 046  0.0   0.3+    000308 049  0.1+  1.4-    000507 071  0.7+  0.8-
000204 046  0.2+  0.1+    000309 704  0.6+  0.2+    000507 071 (3.3-  1.1+)
000204 422  0.8+  0.1-    000309 704  0.4+  0.0     000507 071  1.3+  0.7-
000204 360  0.5+  0.3-    000309 704  0.7+  0.2+    000508 071  1.5+  0.1+
000204 360  0.9+  0.3+    000309 704  0.4+  0.0     000508 071  1.5+  0.3-
000204 360  0.4+  0.2-    000309 704  0.9+  0.0     000508 071  1.6+  0.2-
000205 691  0.1-  0.1-    000311 071  0.4+  0.2+    000514 557  0.4-  0.8-
000205 691  0.3-  0.3-    000311 071  0.5+  0.7+    000514 557  0.1-  0.2-
000205 691  0.2-  0.3-    000311 071  0.1-  0.1+    000514 557  0.7-  0.2+
000207 413  0.5+  0.0     000311 071  0.2+  0.6+    000514 557  0.1-  0.5-
000207 413  0.4+  0.2+    000312 670  0.9-  0.4+    000514 557  0.7-  0.2-
000208 413  0.6-  0.1-    000312 670  2.5-  1.0+    000514 557  0.7-  0.1-
000208 413  0.1+  0.3-    000312 704  0.4-  0.0     000514 557  0.7-  0.2-
000210 711  0.9+  0.0     000312 704  0.3-  0.0     000514 118  0.3-  0.9+
000210 711  0.5+  0.3-    000312 704  0.4-  0.4-    000514 118  1.0-  0.6+
000224 413  0.6+  1.6+    000312 704  0.5-  0.8-    000514 118  0.5-  0.3+
000224 413  0.2+  0.4-    000312 704  0.6-  0.6-    000515 046  1.0-  0.6-
000225 413  0.6-  0.4+    000313 587  0.3+  0.1-    000515 046  0.9-  0.3+
000225 413  0.3-  0.4+    000313 587  0.1+  0.6+    000515 046  0.3-  0.1-
000225 610  1.4-  0.2+    000314 670  0.5-  1.0-    000515 046  0.3-  0.3-
000225 610  1.6-  0.0     000314 670  0.0   0.2-    000515 046  0.7-  0.8-
000225 610  1.9-  0.2-    000322 118  0.2+  0.3+    000601 699  0.2-  0.0
000225 610  2.1-  0.4-    000322 118  0.2+  0.7+    000601 699  0.5-  0.1+
000225 610  2.3-  0.6-    000323 670  0.2-  0.0     000601 699  0.4+  0.0
000226 691  0.6+  0.4-    000323 670  0.2+  0.3-    000601 699  0.3-  0.5+
000226 691  0.6+  0.5-    000401 610  0.9+  0.2-    000603 118  0.4+  0.3-
000226 691  0.5+  0.4-    000401 610  0.6+  0.6+    000603 118  0.3-  0.7-
000226 540  0.2+  0.1+    000401 610  0.4+  1.3+    000621 046  1.0-  1.3+
000226 540  0.4+  0.0     000401 610  0.2+  1.8+    000621 046  0.0   0.6+
000226 540  0.3+  0.0     000402 704  0.2-  0.6+    000621 046  1.0-  0.5+
000226 540  0.2+  0.0     000402 704  0.4-  0.8+    000709 608  2.2+  2.2-
000229 704  0.1+  0.6+    000402 704  0.5-  1.0+    000709 608  2.0+  2.2-
000229 704  0.2-  0.7+    000403 071  0.5-  0.5-    000709 608  2.2+  2.4-
000229 704  0.1-  0.8+    000403 071  0.4-  0.1+    000722 413  1.3-  0.9+
000229 704  0.1+  0.8+    000407 610  0.8-  0.4+    000722 413  0.6-  0.3+
000229 704  0.3-  0.6+    000407 610  0.7-  0.4+    000722 413  1.0-  0.6+
000302 703  0.7+  0.2+    000407 610  0.5-  0.4+    000728 474  1.0-  0.4-
000302 703  0.4+  0.4+    000407 610  0.4-  0.4+    000728 474  0.2+  1.5+
000302 670  0.5+  0.2+    000408 739  0.4-  0.4+    031219 291  0.5-  0.4-
000302 703  1.0+  1.0+    000408 739  0.5+  0.4-    031219 291  0.6+  0.7-
000302 703  0.0   0.3+    000408 739  0.5-  0.7-    031219 291  1.1-  0.2+
000302 670  0.9+  0.2+    000408 118  0.1-  0.4-    040128 291  0.4+  0.2-
000302 610  1.1+  0.4-    000408 118  0.0   0.4-    040128 291  1.2+  0.7+
000302 610  0.9+  0.2-    000410 699  0.8+  0.4+    040128 291  1.3+  0.1+
000302 610  0.6+  0.3+    000410 670  0.6-  0.5-    040130 291  0.0   1.7-
000302 610  0.3+  0.6+    000410 699  0.3+  0.5+    040130 291  0.6-  0.3+
000302 610  0.0   1.0+    000410 699  0.9-  1.0+    040130 291  0.8-  0.4+
000304 691  0.2-  0.7+    000410 699  0.8+  0.5+    040130 291  1.4-  0.1-
000304 691  0.2+  1.4+    000410 670  0.0   0.2-    040130 291  0.7+  0.5+
000305 704  0.6+  0.3+    000411 360  0.1-  0.2-    040130 291  0.2+  0.3-
000305 704  0.1-  0.0     000411 360  0.2-  0.3-
000305 704  0.4+  0.1+    000411 360  0.4-  0.3-

Ephemeris:
2000 BG19                a,e,i = 2.67, 0.56, 13                  q = 1.1840
Date    TT    R. A. (2000) Decl.     Delta      r     Elong.  Phase     V
2004 01 26    06 20.99   +10 29.7    1.712    2.598   147.6    11.7    22.0
2004 02 05    06 11.99   +11 30.4    1.732    2.537   136.2    15.6    22.1
2004 02 15    06 05.78   +12 35.9    1.771    2.475   125.1    19.1    22.2
2004 02 25    06 02.81   +13 43.2    1.825    2.412   114.6    21.9    22.3
2004 03 06    06 03.19   +14 49.7    1.887    2.347   104.9    24.1    22.4
2004 03 16    06 06.81   +15 53.4    1.954    2.282    95.9    25.7    22.4
Kyle E. Smalley              (C) Copyright 2004 MPC           M.P.E.C. 2004-B67

Read MPEC 2004-B66 Read MPEC 2004-B68


Our Web policy. Index to the CBAT/MPC/ICQ pages.


Valid HTML 4.01!